Погода в Каргаске

Россия / Томская область     59°03′24″N   80°51′38″E
темп.,
°C
ветер,
м/с
пор.,
м/с
влажн.,
%
обл.,
%
осадки,
мм/ч
давл.,
гПа
погр.,
м
31 июля, сб
сб3101:00+9ююз229627 1.1 101136
04:00+10ю3690100 0.0 1011112
07:00+11ююв3999100 1.2 1010320
10:00+13юв41297100 1.3 1009517
13:00+13ююв51196100 3.8 1008538
16:00+13ю51396100 4.1 10071000
19:00+14ююз41098100 5.9 1007767
22:00+14юз279998 0.2 1008381
1 августа, вс
вс101:00+13зюз259986 0.3 1009230
04:00+13зсз1298100 0.2 101072
07:00+13зсз129676 0.2 1011132
10:00+15ссз238773 0.1 1012556
13:00+18сз226499 0.2 10121208
16:00+18сз2260100 0.0 10121176
19:00+19с11596 0.0 10111070
22:00+13св228490 0.0 101115
2 августа, пн
пн201:00+11вюв228920 0.0 101019
04:00+10юв229544 0.0 101023
07:00+11вюв2491100 0.0 100993
10:00+17юв3468100 0.0 1008476
13:00+21юв3454100 0.0 10071274
16:00+24вюв3444100 0.0 10052127
19:00+18ю2580100 0.2 1006311
22:00+14юв1193100 0.1 100611
3 августа, вт
вт301:00+13в1194100 0.1 100610
04:00+14всв2292100 0.0 100536
07:00+14ссв1294100 0.2 100638
10:00+14ссз2498100 0.6 1006114
13:00+15ссз2595100 1.0 1006134
16:00+16зсз2591100 0.1 1006151
19:00+18сз378395 0.2 1006240
22:00+14зсз379591 0.4 1006125
4 августа, ср
ср401:00+14зсз3109797 0.8 1007218
04:00+13сз399697 0.2 1006210
07:00+13зсз3796100 0.3 1007181
10:00+18ссз467818 0.1 1007504
13:00+23ссз455317 0.1 10071303
16:00+20сз4875100 1.6 1007646
19:00+19сз3882100 2.7 1006231
22:00+16зсз31082100 0.0 1006260